Theta_e
325 324 324 326 330 336 339 343 347 347 357 358 358 360 356 354 360 352 348 347 346 347 345 342 341 342 345 347 348 348 352 349 353 352 350 351 353 353 351 354 353 353 353 352
325 323 325 326 330 331 334 342 346 356 355 357 358 357 356 356 357 357 350 348 349 348 345 344 341 342 344 347 348 348 353 349 354 348 352 353 350 353 352 353 353 353 353 352
326 324 324 326 328 330 333 339 342 364 351 348 354 358 352 353 350 354 353 349 349 351 349 345 345 343 343 347 348 349 354 350 353 350 353 348 349 354 353 352 353 353 352 352
325 326 324 326 328 331 335 341 342 354 351 359 354 367 356 358 360 358 358 357 352 350 349 346 347 345 343 346 347 350 356 352 352 353 352 354 352 351 353 353 353 353 351 352
324 326 325 327 330 332 337 338 339 339 343 352 352 355 359 357 359 361 359 358 356 351 349 348 347 346 345 345 347 351 355 354 354 354 351 351 351 338 352 350 352 353 352 351
326 326 326 328 332 334 335 336 339 338 336 348 350 351 363 360 361 359 359 357 356 353 350 349 347 346 346 345 346 351 354 356 353 355 355 353 352 350 351 350 351 354 351 353
326 327 327 329 332 334 333 338 342 341 339 338 348 350 361 357 353 355 357 354 354 356 352 351 350 349 347 347 346 352 354 358 357 355 356 356 354 352 350 351 354 353 353 353
327 331 328 331 333 335 335 338 340 341 338 335 347 361 360 353 350 350 349 350 352 356 355 354 351 349 348 348 347 352 356 359 358 358 358 356 355 355 353 352 354 350 348 350
328 330 331 331 332 334 335 337 335 335 334 334 354 358 353 349 349 347 345 346 349 352 355 354 353 350 348 350 350 352 356 358 359 358 358 359 358 355 351 348 346 350 352 349
328 332 330 328 329 329 331 332 334 335 338 338 357 357 360 353 350 345 343 343 343 346 349 353 351 348 353 351 352 354 358 360 360 360 359 360 360 358 352 355 352 352 355 352
326 329 327 327 326 328 330 330 332 332 333 336 357 359 349 351 347 344 341 338 339 341 343 344 346 345 348 347 346 345 352 361 358 360 361 360 360 360 359 357 353 350 352 354
325 326 329 326 325 325 327 329 331 334 337 335 352 357 346 345 343 341 338 335 335 337 340 341 341 340 339 345 345 344 344 344 353 358 357 358 360 360 360 359 357 354 353 352
324 325 328 327 325 325 327 328 329 330 332 337 344 355 343 342 341 339 339 335 333 336 337 338 339 339 338 337 338 343 340 337 350 354 356 358 358 357 358 360 358 357 355 354
323 322 325 328 328 325 325 327 327 328 331 331 349 350 344 342 340 338 338 336 334 333 334 335 336 337 336 335 334 335 336 341 344 348 351 355 356 357 356 356 357 357 355 355
320 322 322 324 325 322 324 324 326 326 328 335 348 348 344 341 340 338 337 335 334 334 332 333 334 333 335 335 332 331 331 334 338 340 340 345 351 353 353 355 354 355 356 356
322 323 322 324 322 321 322 323 323 322 323 341 344 346 341 339 338 337 336 334 333 332 330 329 329 332 332 333 334 331 329 329 329 333 336 338 341 347 351 352 353 354 355 357
322 323 323 323 322 321 321 321 321 321 322 328 344 342 339 338 338 336 335 332 331 330 328 327 326 325 325 325 328 333 332 330 330 329 327 331 335 337 340 344 350 352 353 353
322 323 324 324 323 322 321 322 321 320 322 327 337 339 338 337 335 333 332 330 328 327 326 325 323 322 323 322 323 324 328 333 333 332 331 330 327 327 334 338 342 342 349 353
317 321 320 322 321 321 321 323 321 319 320 333 338 337 335 334 331 330 328 327 326 324 322 321 320 320 321 320 320 322 323 324 330 330 331 333 332 331 329 328 333 337 339 343
317 318 321 321 320 320 324 321 320 320 322 325 334 334 332 330 333 330 326 323 321 319 318 317 317 318 318 318 318 320 321 323 324 324 324 324 329 333 332 329 328 330 333 336
318 319 318 319 322 322 322 321 319 320 325 325 331 332 331 331 327 325 321 319 317 316 315 315 315 316 316 316 317 318 319 321 321 322 322 322 323 324 329 332 331 331 328 330
323 321 321 319 319 320 322 321 321 327 324 324 325 327 324 323 321 319 319 318 316 315 315 314 315 315 314 315 316 317 317 317 317 318 319 319 321 322 324 326 331 332 332 330
322 322 324 324 325 323 321 323 323 323 324 324 324 322 321 320 319 318 317 316 315 314 314 314 313 313 314 314 314 315 316 316 316 317 317 318 318 320 321 324 327 331 331 332
320 318 321 322 323 322 321 320 321 321 321 319 319 318 318 317 316 316 316 315 314 314 313 313 313 313 313 313 313 314 313 313 313 315 316 317 317 317 318 319 322 324 327 330
319 320 320 320 320 319 318 318 318 317 318 317 316 316 315 315 315 315 315 314 313 313 313 313 312 313 312 312 311 311 311 312 313 313 314 315 316 316 317 318 319 322 323 325
320 320 326 322 319 319 319 318 317 317 316 315 315 314 314 314 314 313 313 313 313 313 312 312 312 312 311 310 310 310 310 310 311 313 313 314 315 315 316 316 318 319 322 323
Wind_Speed
15 11 15 19 20 20 21 18 11 7 23 18 13 15 15 12 14 12 17 19 18 16 18 23 23 24 21 20 18 15 16 18 13 10 9 11 8 8 11 13 13 11 12 8
11 16 17 20 18 23 23 13 10 13 23 20 16 11 8 8 8 13 16 17 14 9 15 22 23 25 23 23 18 18 19 20 16 12 4 9 5 8 7 14 11 11 9 9
17 14 19 17 19 21 21 17 12 12 17 19 16 6 10 7 17 19 12 16 17 17 11 18 21 24 25 24 21 19 19 21 18 15 7 9 8 8 9 11 13 12 9 7
19 16 18 17 17 18 17 17 19 22 18 8 13 5 15 19 26 15 16 16 15 17 16 17 22 25 28 27 24 22 18 19 17 8 10 10 5 6 7 6 17 13 11 10
18 15 16 17 18 13 18 11 14 19 13 20 19 6 5 3 13 19 20 17 15 18 13 13 24 23 32 29 27 25 21 21 17 13 14 13 9 10 11 8 13 12 13 10
15 16 11 11 14 12 21 12 9 6 9 11 21 14 8 3 7 9 20 18 16 15 18 13 20 21 31 30 29 28 24 22 20 15 13 13 18 14 17 15 12 13 12 12
17 17 12 14 17 17 15 13 8 10 9 12 20 11 6 14 10 10 12 9 5 2 15 16 16 23 18 32 31 31 29 24 21 19 15 14 10 11 9 14 15 12 12 13
13 14 17 13 14 10 13 18 10 14 12 12 18 11 10 19 14 13 6 5 5 10 13 14 15 15 14 24 32 32 31 27 25 22 20 17 13 15 17 18 11 8 12 11
14 15 15 6 16 1 16 17 18 15 20 13 9 14 13 18 17 13 7 7 8 10 6 16 22 22 28 13 13 34 34 30 28 25 22 19 16 13 11 10 10 10 11 15
13 11 15 10 5 9 14 9 17 14 14 14 11 13 13 16 14 12 11 10 10 11 15 16 20 20 10 4 12 13 34 31 28 25 24 21 19 17 15 8 9 7 13 14
16 9 9 15 11 15 11 11 12 17 15 10 11 4 6 17 13 14 12 9 8 10 11 11 16 19 19 6 7 21 12 25 24 23 24 23 21 19 16 13 11 16 8 13
12 4 11 13 13 19 16 13 16 12 17 10 7 3 5 11 14 14 12 9 8 8 9 11 18 20 18 17 19 14 18 35 3 18 24 22 20 20 20 17 16 14 14 10
10 9 3 8 7 7 8 13 15 12 15 15 5 6 7 14 13 11 13 12 10 9 11 13 18 21 19 16 14 9 12 25 11 5 11 22 23 22 20 20 18 17 15 13
6 12 8 5 12 9 17 15 13 13 11 13 8 19 15 15 13 11 13 12 12 11 11 12 15 20 22 21 21 19 13 7 9 13 12 7 18 21 19 17 20 19 18 17
4 9 11 4 7 11 14 20 17 10 15 11 17 19 15 13 13 12 12 12 12 11 12 12 14 18 19 21 22 21 18 16 7 10 15 19 10 2 11 13 17 17 19 19
2 8 10 10 6 5 10 6 3 5 11 14 18 18 17 15 13 14 12 12 12 12 12 12 11 16 19 19 17 20 22 23 22 15 16 15 13 14 8 4 11 14 18 20
4 7 10 11 13 12 10 10 9 8 10 4 14 15 16 17 14 11 9 11 11 11 11 11 12 14 15 17 15 14 16 18 22 23 22 19 14 14 14 14 10 8 13 16
2 8 9 10 9 14 7 7 9 12 11 4 12 22 19 18 15 14 12 12 11 10 9 9 12 11 13 14 14 13 15 10 15 19 19 22 21 17 15 11 12 15 11 9
3 6 6 9 11 12 9 3 4 7 8 17 19 17 15 15 17 12 11 11 10 8 8 10 8 9 11 13 14 13 13 13 16 18 19 17 14 16 18 16 14 13 14 13
6 6 7 7 11 12 12 11 3 0 5 9 17 16 16 12 9 10 11 10 10 10 9 6 7 9 11 12 13 13 13 13 15 15 15 15 16 15 13 12 11 13 12 11
5 5 7 8 6 4 9 10 4 4 2 14 16 19 21 11 7 13 12 11 9 8 8 7 7 9 9 9 10 11 11 12 12 11 12 13 13 13 13 9 11 14 13 14
3 5 5 7 9 6 7 4 5 4 5 9 5 14 17 15 16 13 9 8 7 5 5 6 7 7 7 9 10 10 11 14 15 15 14 14 14 13 14 15 13 12 13 14
5 5 4 6 3 5 6 8 5 4 6 9 8 10 13 12 12 11 8 5 5 4 3 4 6 5 7 9 10 10 11 13 15 16 17 17 17 17 17 17 17 16 15 15
9 5 4 4 8 7 5 5 2 2 9 6 7 5 5 7 8 7 5 5 3 2 3 4 5 6 7 9 11 12 15 17 18 19 19 18 18 19 20 20 19 19 17 15
5 3 5 7 11 2 1 2 4 4 5 9 7 8 8 6 7 6 5 5 3 2 1 4 4 5 7 9 11 12 14 17 18 19 20 21 20 19 20 20 22 22 22 18
6 5 4 6 4 6 7 7 9 7 6 6 8 7 8 8 7 8 6 5 3 2 3 3 5 7 9 10 10 11 13 16 18 19 19 20 22 21 21 22 23 23 21 22
Wind_Direction
199 215 211 212 220 241 219 213 195 308 132 112 140 152 182 208 242 185 172 172 164 161 159 160 165 157 156 151 165 161 151 152 156 179 183 143 171 154 142 133 163 137 144 144
181 223 225 230 221 236 255 276 149 125 103 109 132 133 163 211 236 228 181 178 161 142 158 164 168 158 156 153 168 168 155 165 176 192 215 168 158 211 153 134 144 136 142 142
224 216 234 219 236 226 240 228 150 169 110 118 120 123 146 219 238 252 190 186 155 151 177 168 169 160 157 156 167 174 166 179 191 193 161 171 218 173 163 148 151 147 147 141
232 242 197 232 241 224 242 232 146 166 134 154 177 146 189 193 209 235 157 207 178 158 200 172 171 170 162 160 168 175 175 185 200 199 175 171 202 10 178 149 160 158 158 157
219 230 211 222 225 213 242 240 178 212 193 124 194 154 208 246 291 181 187 171 185 177 187 186 175 186 160 163 168 172 182 185 195 192 163 177 181 215 222 173 146 159 159 165
242 218 228 219 232 227 238 299 183 253 213 188 195 208 165 122 318 139 159 165 177 176 188 204 190 193 156 165 168 169 183 190 196 194 193 186 179 184 231 196 154 165 164 168
225 234 210 217 217 230 218 247 204 209 226 248 166 207 141 153 99 35 55 48 13 211 205 192 186 209 168 165 168 168 179 191 194 200 205 195 175 117 174 184 189 177 170 186
210 216 192 207 241 224 202 235 208 203 223 228 168 136 126 123 108 87 31 59 10 113 294 263 186 179 215 175 170 168 176 187 196 197 205 217 203 165 185 205 183 189 207 248
209 223 187 180 231 281 190 233 249 231 222 226 112 99 128 126 114 121 99 56 36 350 247 194 248 170 201 251 174 169 175 187 194 200 204 210 215 200 196 213 203 209 234 193
290 293 154 171 278 279 271 257 241 253 271 253 138 155 150 139 124 101 69 51 23 18 2 28 41 47 16 167 55 320 173 183 192 201 202 205 207 212 205 220 217 227 118 130
287 162 204 191 206 231 223 252 257 265 256 238 169 96 90 131 119 103 89 65 32 24 16 46 57 53 40 134 182 347 17 189 191 204 200 202 205 205 211 213 224 238 229 159
295 319 188 212 210 219 256 251 233 245 251 273 91 78 64 109 111 103 98 85 61 41 36 45 64 65 53 87 180 241 22 337 91 217 206 204 203 204 199 205 217 226 246 224
347 242 151 142 185 235 242 243 271 269 262 273 178 137 136 106 102 110 108 99 81 60 51 54 62 73 70 68 70 104 198 277 13 29 247 205 198 202 205 201 204 213 222 233
302 293 360 351 331 303 212 240 242 265 276 276 68 137 141 129 121 126 112 104 97 88 64 66 65 70 81 74 66 60 59 353 15 24 29 206 207 205 206 212 209 206 211 214
299 296 302 213 264 319 325 210 234 246 274 336 137 143 143 141 149 135 119 114 103 89 80 64 68 64 63 73 76 80 72 57 57 35 35 43 70 117 222 232 223 218 211 212
296 294 306 299 268 267 313 355 17 245 262 113 119 136 139 136 134 144 138 125 111 100 91 84 57 77 64 50 67 63 59 61 55 46 48 34 27 43 46 295 254 238 229 224
239 286 274 266 278 266 245 250 254 232 262 160 150 154 145 145 142 139 131 123 111 102 92 85 77 70 66 71 48 54 58 56 53 54 51 47 36 22 16 21 19 300 262 251
230 248 271 274 275 253 260 346 289 267 229 119 91 150 159 154 143 146 145 133 114 105 89 69 67 55 59 60 57 40 44 51 54 50 45 38 33 28 19 6 357 359 2 293
198 282 245 245 235 252 211 210 261 275 181 109 127 147 154 147 128 116 121 120 115 108 92 67 53 56 52 34 38 27 41 29 41 31 24 20 20 20 25 11 355 336 331 331
275 207 282 268 254 268 31 81 23 306 239 132 132 132 133 133 160 161 143 132 114 95 85 63 49 52 44 22 18 15 18 20 29 19 11 357 359 359 354 344 356 349 340 326
202 254 242 247 268 101 98 81 358 189 344 166 150 158 163 152 86 99 113 105 108 104 95 86 65 54 35 20 12 8 8 14 3 353 346 343 340 334 324 328 332 332 331 329
291 196 220 249 257 249 86 83 321 53 62 50 73 108 95 114 118 115 119 126 121 102 88 69 64 44 18 20 14 5 3 353 342 336 330 327 325 321 315 317 308 298 298 300
274 337 308 16 50 61 70 66 74 68 85 73 80 76 112 127 129 132 135 131 115 101 64 41 41 22 21 12 5 353 350 342 338 330 324 319 313 308 304 300 294 288 287 262
198 264 283 332 150 167 129 77 102 110 125 104 116 118 130 140 132 141 150 151 122 75 45 26 9 6 0 355 351 349 344 340 334 325 320 316 312 305 298 292 286 281 279 277
248 168 221 258 289 287 136 268 193 182 163 162 169 165 184 188 167 174 167 155 180 116 47 26 349 345 345 349 341 334 333 331 326 321 316 311 301 296 291 284 279 276 275 279
278 216 229 260 355 346 290 199 173 198 200 182 185 199 192 189 194 171 184 175 178 116 24 332 348 343 336 332 325 331 331 328 325 316 311 310 311 305 302 302 298 292 284 282